www.pogodaiklimat.ru

Погода и климат >> Архив погоды >> Россия >> Приморский край >> Тимирязевский


АРХИВ ПОГОДЫ в Тимирязевском

Время (UTC), дата Ветер
(напр.,м/с)
 
Видим.   Явления Облачность Т
(С)
Тd
(С)
f
(%)
Тe
(С)
Тes
(С)
Комфортность P
(гПа)
Po
(гПа)
Тmin
(С)
Tmax
(С)
R
(мм)
R24
(мм)
S
(см)
09 11.06 Ю 5
{13}
50 км ясно +18.4 +11.4 64 +18 +20 1007.6 1003.5 +20.7
12 11.06 Ю 5-10
{10}
50 км ясно +11.9 +10.7 92 +9 +9 1009.1 1004.9
15 11.06 Ю 6-11
{11}
50 км 8/8 300 м
[St]
+11.1 +10.1 94 +8 +8 1009.4 1005.1
18 11.06 Ю 5
{13}
50 км 8/0
[]
+10.7 +9.7 94 +8 +8 1009.5 1005.3
21 11.06 Ю 5-11
{13}
10 км 10/10 300 м
[St]
+11.1 +10.2 94 +8 +8 1010.8 1006.6 +10.7
00 12.06 Ю 5-12
{13}
20 км 10/10 300 м
[St]
+12.7 +10.6 87 +10 +10 1011.2 1007.0
03 12.06 Ю 7-14
{14}
20 км 10/8 300 м
[St Ci fib]
+15.3 +10.9 75 +14 +14 1010.0 1005.8
06 12.06 Ю 7-12
{14}
20 км 10/3 1000 м
[Sc Ac lent Ci fib]
+17.2 +11.3 68 +16 +17 1008.0 1003.9
09 12.06 Ю 6-11
{12}
20 км в посл. час ливневой дождь 10/10 600 м
[Cb cap]
+14.2 +12.5 90 +12 +12 1008.2 1004.0 +18.0 0.8
12 12.06 Ю 6-11
{13}
20 км {ливн. осадки} 10/10 600 м
[Sc diur, vesp]
+12.8 +11.2 90 +10 +10 1009.1 1004.9
15 12.06 Ю 6-11
{11}
20 км 10/10 300 м
[Sc diur, vesp]
+12.6 +11.2 91 +10 +10 1008.7 1004.5
18 12.06 Ю 6
{13}
20 км 10/10 300 м
[St]
+12.6 +12.0 96 +10 +10 1008.6 1004.4
21 12.06 Ю 6-12
{13}
20 км 10/10 300 м
[St]
+13.5 +11.8 89 +11 +11 1008.6 1004.4 +12.6
00 13.06 Ю 6-12
{13}
10 км 10/10 300 м
[St]
+14.7 +12.9 89 +13 +13 1008.5 1004.3
03 13.06 Ю 8-15
{16}
20 км 10/9 300 м
[St Ci fib]
+15.4 +12.9 85 +13 +14 1007.5 1003.3
06 13.06 Ю 8-17
{17}
10 км 10/10 300 м
[St]
+15.2 +13.1 87 +13 +13 1005.8 1001.6
09 13.06 Ю 7-16
{17}
20 км 10/10 300 м
[St]
+14.7 +13.1 90 +13 +13 1004.6 1000.4 +15.8
12 13.06 Ю 6-12
{17}
10 км слаб. ливневой дождь 10/10 300 м
[Cb cap]
+13.9 +13.6 98 +12 +12 1005.6 1001.4
15 13.06 Ю 6-12
{14}
4000 м слаб. ливневой дождь 10/10 300 м
[Cb cap]
+14.2 +13.7 97 +12 +12 1005.7 1001.6
18 13.06 Ю 5-10
{13}
4000 м слаб. ливневой дождь 10/10 300 м
[Cb cap]
+14.0 +13.8 99 +12 +12 1005.5 1001.3
21 13.06 Ю 5
{12}
10 км слаб. ливневой дождь 10/10 300 м
[Cb cap]
+14.4 +14.2 99 +13 +13 1005.7 1001.5 +13.9 4
00 14.06 Ю 5 10 км слаб. ливневой дождь 10/10 300 м
[Cb cap]
+14.8 +14.6 99 +13 +13 1006.2 1002.1
03 14.06 Ю 3
{10}
50 км в посл. час ливневой дождь 10/10 300 м
[Cb cap]
+15.9 +15.5 97 +15 +15 1005.4 1001.3
06 14.06 Ю 5 20 км {ливн. осадки} 10/8 300 м
[St Ac trans Ci fib]
+17.6 +15.9 90 +17 +18 1004.3 1000.2
09 14.06 Ю 3 20 км 10/6 300 м
[St Ac trans Ci fib]
+17.6 +15.9 90 +18 +18 1004.3 999.8 +18.5 3
12 14.06 Ю 1 20 км {ливн. осадки} 10/10 300 м
[Sc diur, vesp]
+15.9 +15.7 99 +17 +17 1006.0 1001.8
15 14.06 Ю 1 4000 м слаб. ливневой дождь 10/10 300 м
[Cb cap]
+15.5 +15.4 99 +16 +16 1005.6 1001.4
18 14.06 С 2 4000 м слаб. ливневой дождь 10/10 300 м
[Cb cap]
+15.3 +15.2 99 +15 +15 1004.0 999.8
21 14.06 СВ 3 10 км {ливн. осадки} 10/10 300 м
[Sc diur, vesp]
+14.0 +13.8 99 +13 +13 1004.3 1000.1 +14.0 5
00 15.06 С 5 10 км слаб. дождь 10/9 300 м
[Frnb As op]
+12.6 +12.0 96 +10 +10 1005.9 1001.7 +12.6
03 15.06 С 4 4000 м слаб. дождь 10/9 300 м
[Frnb As op]
+12.2 +12.1 99 +10 +10 1006.7 1002.5
06 15.06 СЗ 4 10 км слаб. дождь 10/9 300 м
[Frnb As op]
+12.2 +12.1 99 +10 +10 1006.6 1002.4
09 15.06 СЗ 4 50 км {дождь} 10/10 300 м
[St]
+12.5 +11.9 96 +10 +10 1006.8 1002.6 +14.0 12
12 15.06 С 2 50 км в посл. час ливневой дождь 10/10 300 м
[Sc diur, vesp]
+12.9 +12.8 99 +12 +12 1006.6 1002.4
15 15.06 С 5 10 км слаб. ливневой дождь 10/10 300 м
[Cb cap]
+13.9 +13.6 98 +12 +12 1006.6 1002.4
18 15.06 С 4 10 км слаб. ливневой дождь 10/10 300 м
[Cb cap]
+13.4 +13.3 99 +12 +12 1006.4 1002.2
21 15.06 С 5 10 км в посл. час ливневой дождь 10/10 300 м
[St]
+11.9 +11.9 100 +9 +9 1007.5 1003.3 +11.9 8
00 16.06 С 7-10
{11}
50 км {ливн. осадки} 10/10 300 м
[St]
+12.4 +10.8 90 +9 +9 1008.3 1004.1
03 16.06 С 6
{10}
50 км 10/10 300 м
[Sc diur, vesp]
+12.8 +9.9 83 +10 +10 1008.9 1004.7
06 16.06 С 4 50 км 10/10 600 м
[Sc]
+16.1 +10.9 71 +15 +15 1008.1 1003.9
09 16.06 СВ 4 50 км 10/3 1000 м
[Cu med, cong Ci fib]
+18.5 +10.3 59 +19 +20 1007.7 1003.5 +19.0
12 16.06 СВ 1 50 км 3/0
[Ac trans Ci fib]
+12.2 +10.4 89 +12 +12 1009.0 1004.8
15 16.06 штиль 0 50 км ясно +9.3 +8.9 97 +8 +8 1009.9 1005.6
18 16.06 Ю 1 50 км ясно +6.7 +6.5 99 +5 +5 1010.7 1006.4
21 16.06 Ю 1 4000 м дымка ясно +7.3 +7.1 99 +6 +8 1010.9 1006.6 +5.8
00 17.06 ЮЗ 1 20 км 3/0
[Ci fib]
+15.8 +9.2 65 +17 +29 опасность
простуды
1011.3 1007.1
03 17.06 С 2 50 км 3/0
[Ci fib]
+20.4 +7.8 44 +22 +40 комфорт 1009.9 1005.8
06 17.06 СВ 1 50 км 4/1 1000 м
[Cu hum Ci fib]
+23.1 +7.7 37 +24 +37 комфорт 1008.9 1004.8
09 17.06 З 1 50 км 10/8 600 м
[Cb cap Ci fib]
+20.8 +11.1 54 +24 +24 комфорт 1008.6 1004.5 +23.7
12 17.06 Ю 1 50 км 10/10 600 м
[Cb cap]
+17.6 +10.6 64 +19 +19 1009.6 1005.5
15 17.06 Ю 3 50 км 4/4 600 м
[Sc diur, vesp]
+13.9 +10.6 80 +13 +13 1009.6 1005.4
18 17.06 В 1 50 км 10/10 600 м
[Cb cap]
+12.3 +11.1 92 +12 +12 1008.7 1004.5
21 17.06 Ю 1 10 км 10/10 600 м
[Cb cap]
+13.0 +11.8 92 +13 +13 1008.6 1004.4 +12.0
00 18.06 Ю 3 10 км в посл. час ливневой дождь 10/10 300 м
[Sc diur, vesp]
+15.6 +14.6 94 +15 +15 1008.0 1003.9
03 18.06 Ю 3 20 км 10/3 1000 м
[Cu hum Ac trans Ci fib]
+20.0 +14.3 70 +22 +28 комфорт 1005.9 1001.8
06 18.06 Ю 4 20 км 10/6 600 м
[Cb cap Ac trans Ci fib]
+20.6 +15.2 71 +24 +25 комфорт 1004.5 1000.4

 

Местоположение метеостанции Тимирязевский (Приморский край, Россия): широта 43.88 долгота 131.90 высота над уровнем моря 36 м.

В архиве по умолчанию представлена погода в Тимирязевском за последнюю неделю. Архивные данные за месяц целиком и за предыдущие месяцы, начиная с января 2011 года, Вы можете получить, выбрав интересующий диапазон дат из раскрывающегося списка и нажав кнопку "Ввод!".


*Определитесь, кто Вы:
робот инопланетянин человек

Внимание! Время в таблицах - всемирное. Для получения местного времени необходимо прибавить поправку, которая равна 10 ч.

Смотрите также архив погоды в соседних городах и на ближайших метеорологических станциях:

Погода в Полтавке (Приморский край, Россия) (51 км)
Погода в Хороле (Приморский край, Россия) (62 км)
Погода в Многоудобном (Приморский край, Россия) (65 км)
Погода в Пограничном (Приморский край, Россия) (75 км)
Погода в Суйфэньхэ (Хэйлунцзян, Китай) (82 км)
Погода в Владивостоке (Приморский край, Россия) (85 км)
Погода в Барабаше (Приморский край, Россия) (86 км)
Погода в Анучино (Приморский край, Россия) (89 км)
Погода на Мысе Назимова (Приморский край, Россия) (92 км)
Погода в Астраханке (Приморский край, Россия) (94 км)

Пояснения к столбцам:

Ветер - указаны скорость ветра в м/с - средняя за 10 мин, порывы в срок и между сроками (в фигурных скобках) и направление, откуда дует ветер: С - северный, СВ - северо-восточный, В - восточный, ЮВ - юго-восточный, Ю - южный, ЮЗ - юго-западный, З - западный, СЗ - северо-западный.
Видимость - горизонтальная дальность видимости в метрах или километрах. При видимости от 1 до 10 км при отсутствии осадков обычно наблюдается дымка, при ухудшении видимости до 1 км и менее - туман. В сухую погоду видимость может ухудшаться дымом, пылью или мглою.
Явления - указаны атмосферные явления, наблюдавшиеся в срок или в последний час перед сроком; фигурными скобками обозначены явления, наблюдавшиеся между сроками (за 1-3 часа до срока); квадратными скобками обозначены град или гололедные отложения с указанием их диаметра в мм.
Облачность - указаны через наклонную черту общая и нижняя облачность в баллах и высота нижней границы облаков в метрах; квадратными скобками обозначены формы облаков: Ci - перистые, Cs - перисто-слоистые, Cc - перисто-кучевые, Ac - высококучевые, As - высокослоистые, Sc - слоисто-кучевые, Ns - слоисто-дождевые, Cu - кучевые, Cb - кучево-дождевые. Подробнее классификацию облаков см. в Атласе облаков (PDF).
T - Температура воздуха - температура, измеренная на высоте 2 м над землей.
Td - Температура точки росы - температура, при понижении до которой содержащийся в воздухе водяной пар достигнет насыщения.
f - Относительная влажность воздуха - влажноcть воздуха, измеренная на высоте 2 м над землей.
Te - Эффективная температура - температура, которую ощущает одетый по сезону человек в тени. Характеристика душности погоды. При расчете учитывается влияние влажности воздуха и скорости ветра на теплоощущения человека.
Tes - Эффективная температура на солнце - температура, которую ощущает человек, с поправкой на солнечный нагрев. Характеристика знойности погоды. Зависит от высоты солнца над горизонтом, облачности и скорости ветра. Ночью, в пасмурную погоду, а также при ветре 12 м/с и более поправка равна нулю.
P - Атмосферное давление - приведенное к уровню моря атмосферное давление.
Po - Атмосферное давление - измеренное на уровне метеостанции атмосферное давление.
Tmin - Минимальная температура - минимум температуры воздуха на высоте 2 м над землей.
Tmax - Максимальная температура - максимум температуры воздуха на высоте 2 м над землей.
R - Количество осадков - Количество выпавших осадков за период времени, мм. При наведении курсора мыши на число - период времени, за который выпало указанное количество осадков.
R24 - Количество осадков - Количество выпавших осадков за 24 часа, мм.
S - Снежный покров - Высота снежного покрова, см. При наведении курсора мыши на число - состояние снежного покрова и степень покрытия местности в баллах.